| time (UTC) | temp F | wind direction | speed MPH | gust MPH | rain 1hr in | rain 24hr in | rain mn in | humidity % | barometer mb |
| 20260901092311 | 76 | 165 | 0.0 | 0.0 | 0.00 | 0.00 | 0.00 | 81 | 1017.8 |
| 20260901091811 | 76 | 165 | 0.0 | 2.0 | 0.00 | 0.00 | 0.00 | 82 | 1017.8 |
| 20260901091310 | 76 | 186 | 1.0 | 2.0 | 0.00 | 0.00 | 0.00 | 82 | 1017.7 |
| 20260901090810 | 76 | 233 | 0.0 | 0.0 | 0.00 | 0.00 | 0.00 | 82 | 1017.7 |
| 20260901090309 | 76 | 233 | 0.0 | 0.0 | 0.00 | 0.00 | 0.00 | 82 | 1017.7 |
| 20260901085809 | 76 | 233 | 0.0 | 0.0 | 0.00 | 0.00 | 0.00 | 81 | 1017.7 |
| 20260901085308 | 76 | 233 | 0.0 | 0.0 | 0.00 | 0.00 | 0.00 | 81 | 1017.7 |
| 20260901084808 | 76 | 233 | 0.0 | 0.0 | 0.00 | 0.00 | 0.00 | 81 | 1017.6 |
| 20260901084307 | 76 | 233 | 0.0 | 1.0 | 0.00 | 0.00 | 0.00 | 81 | 1017.5 |
| 20260901083806 | 76 | 226 | 0.0 | 0.0 | 0.00 | 0.00 | 0.00 | 81 | 1017.6 |
| 20260901083305 | 76 | 226 | 0.0 | 0.0 | 0.00 | 0.00 | 0.00 | 80 | 1017.6 |
| 20260901082805 | 76 | 226 | 0.0 | 0.0 | 0.00 | 0.00 | 0.00 | 80 | 1017.5 |
| 20260901082306 | 76 | 226 | 0.0 | 0.0 | 0.00 | 0.00 | 0.00 | 80 | 1017.5 |
| 20260901081804 | 76 | 226 | 0.0 | 1.0 | 0.00 | 0.00 | 0.00 | 81 | 1017.5 |
| 20260901080301 | 76 | 13 | 0.0 | 0.0 | 0.00 | 0.00 | 0.00 | 82 | 1017.5 |
| 20260901075801 | 76 | 13 | 0.0 | 0.0 | 0.00 | 0.00 | 0.00 | 82 | 1017.5 |
| 20260901075259 | 76 | 13 | 0.0 | 0.0 | 0.00 | 0.00 | 0.00 | 82 | 1017.5 |
| 20260901074759 | 76 | 13 | 0.0 | 0.0 | 0.00 | 0.00 | 0.00 | 82 | 1017.6 |
| 20260901074258 | 76 | 13 | 0.0 | 0.0 | 0.00 | 0.00 | 0.00 | 82 | 1017.5 |
| 20260901073758 | 76 | 13 | 0.0 | 0.0 | 0.00 | 0.00 | 0.00 | 82 | 1017.5 |
| 20260901073257 | 76 | 13 | 0.0 | 0.0 | 0.00 | 0.00 | 0.00 | 81 | 1017.5 |
| 20260901072756 | 77 | 13 | 0.0 | 0.0 | 0.00 | 0.00 | 0.00 | 79 | 1017.4 |
| 20260901072256 | 77 | 13 | 0.0 | 0.0 | 0.00 | 0.00 | 0.00 | 79 | 1017.4 |
| 20260901072006 | 77 | 13 | 0.0 | 0.0 | 0.00 | 0.00 | 0.00 | 78 | 1017.4 |
| 20260901071755 | 77 | 13 | 0.0 | 0.0 | 0.00 | 0.00 | 0.00 | 78 | 1017.4 |
| 20260901071255 | 77 | 13 | 0.0 | 0.0 | 0.00 | 0.00 | 0.00 | 77 | 1017.4 |
| 20260901070754 | 78 | 13 | 0.0 | 0.0 | 0.00 | 0.00 | 0.00 | 76 | 1017.4 |
| 20260901070254 | 78 | 13 | 0.0 | 0.0 | 0.00 | 0.00 | 0.00 | 75 | 1017.5 |
| 20260901065753 | 78 | 13 | 0.0 | 0.0 | 0.00 | 0.00 | 0.00 | 74 | 1017.5 |
| 20260901065253 | 79 | 13 | 0.0 | 0.0 | 0.00 | 0.00 | 0.00 | 73 | 1017.5 |
| 20260901064752 | 79 | 13 | 0.0 | 0.0 | 0.00 | 0.00 | 0.00 | 72 | 1017.5 |
| 20260901064252 | 80 | 13 | 0.0 | 1.0 | 0.00 | 0.00 | 0.00 | 71 | 1017.5 |
| 20260901063751 | 80 | 259 | 0.0 | 4.0 | 0.00 | 0.00 | 0.00 | 70 | 1017.4 |
| 20260901063251 | 80 | 243 | 1.0 | 2.0 | 0.00 | 0.00 | 0.00 | 70 | 1017.3 |
| 20260901062750 | 80 | 210 | 1.0 | 4.0 | 0.00 | 0.00 | 0.00 | 70 | 1017.3 |
| 20260901062250 | 80 | 195 | 3.0 | 5.0 | 0.00 | 0.00 | 0.00 | 70 | 1017.3 |
| 20260901061749 | 80 | 269 | 2.0 | 4.0 | 0.00 | 0.00 | 0.00 | 70 | 1017.3 |
| 20260901061247 | 80 | 235 | 0.0 | 4.0 | 0.00 | 0.00 | 0.00 | 71 | 1017.1 |
| 20260901060854 | 80 | 253 | 3.0 | 6.0 | 0.00 | 0.00 | 0.00 | 71 | 1017.0 |
| 20260901060746 | 80 | 184 | 1.0 | 3.0 | 0.00 | 0.00 | 0.00 | 71 | 1017.0 |
| 20260901060245 | 80 | 253 | 3.0 | 6.0 | 0.00 | 0.00 | 0.00 | 71 | 1017.0 |
| 20260901055745 | 80 | 215 | 2.0 | 4.0 | 0.00 | 0.00 | 0.00 | 71 | 1017.0 |
| 20260901055244 | 80 | 172 | 1.0 | 3.0 | 0.00 | 0.00 | 0.00 | 71 | 1017.0 |
| 20260901054744 | 80 | 231 | 2.0 | 4.0 | 0.00 | 0.00 | 0.00 | 71 | 1017.1 |
| 20260901054243 | 80 | 225 | 2.0 | 6.0 | 0.00 | 0.00 | 0.00 | 71 | 1017.0 |
| 20260901053743 | 80 | 225 | 5.0 | 10.0 | 0.00 | 0.00 | 0.00 | 71 | 1017.2 |
| 20260901052740 | 80 | 162 | 3.0 | 7.0 | 0.00 | 0.00 | 0.00 | 70 | 1017.3 |
| 20260901051739 | 80 | 166 | 3.0 | 4.0 | 0.00 | 0.00 | 0.00 | 70 | 1017.4 |
| 20260901050237 | 79 | 226 | 2.0 | 7.0 | 0.00 | 0.00 | 0.00 | 72 | 1017.4 |
| 20260901045236 | 79 | 34 | 0.0 | 0.0 | 0.00 | 0.00 | 0.00 | 74 | 1017.4 |
| 20260901044736 | 79 | 34 | 0.0 | 0.0 | 0.00 | 0.00 | 0.00 | 74 | 1017.5 |
| 20260901044235 | 79 | 34 | 0.0 | 0.0 | 0.00 | 0.00 | 0.00 | 74 | 1017.5 |
| 20260901043734 | 79 | 34 | 0.0 | 0.0 | 0.00 | 0.00 | 0.00 | 73 | 1017.5 |
| 20260901042732 | 79 | 34 | 0.0 | 0.0 | 0.00 | 0.00 | 0.00 | 73 | 1017.7 |
| 20260901042232 | 79 | 34 | 0.0 | 0.0 | 0.00 | 0.00 | 0.00 | 72 | 1017.8 |
| 20260901041732 | 79 | 34 | 0.0 | 0.0 | 0.00 | 0.00 | 0.00 | 72 | 1017.9 |
| 20260901041231 | 79 | 34 | 0.0 | 0.0 | 0.00 | 0.00 | 0.00 | 72 | 1018.0 |
| 20260901040730 | 79 | 34 | 0.0 | 0.0 | 0.00 | 0.00 | 0.00 | 72 | 1018.0 |
| 20260901040230 | 80 | 34 | 0.0 | 0.0 | 0.00 | 0.00 | 0.00 | 72 | 1018.0 |
| 20260901035729 | 80 | 34 | 0.0 | 0.0 | 0.00 | 0.00 | 0.00 | 72 | 1018.1 |
| 20260901035229 | 80 | 34 | 0.0 | 0.0 | 0.00 | 0.00 | 0.00 | 71 | 1018.1 |
| 20260901034727 | 80 | 34 | 0.0 | 0.0 | 0.00 | 0.00 | 0.00 | 71 | 1018.1 |
| 20260901034227 | 80 | 34 | 0.0 | 0.0 | 0.00 | 0.00 | 0.00 | 70 | 1018.1 |
| 20260901033726 | 80 | 34 | 0.0 | 2.0 | 0.00 | 0.00 | 0.00 | 69 | 1018.2 |
| 20260901033226 | 80 | 73 | 2.0 | 2.0 | 0.00 | 0.00 | 0.00 | 69 | 1018.1 |
| 20260901032725 | 81 | 107 | 1.0 | 3.0 | 0.00 | 0.00 | 0.00 | 69 | 1018.0 |
| 20260901032225 | 81 | 113 | 2.0 | 3.0 | 0.00 | 0.00 | 0.00 | 68 | 1018.1 |
| 20260901031724 | 81 | 122 | 2.0 | 4.0 | 0.00 | 0.00 | 0.00 | 68 | 1018.2 |
| 20260901031224 | 81 | 115 | 2.0 | 3.0 | 0.00 | 0.00 | 0.00 | 68 | 1018.3 |
| 20260901025719 | 81 | 105 | 2.0 | 3.0 | 0.00 | 0.00 | 0.00 | 67 | 1018.2 |
| 20260901025219 | 81 | 44 | 0.0 | 0.0 | 0.00 | 0.00 | 0.00 | 68 | 1018.2 |
| 20260901024718 | 81 | 44 | 0.0 | 0.0 | 0.00 | 0.00 | 0.00 | 69 | 1018.3 |
| 20260901024217 | 81 | 44 | 0.0 | 0.0 | 0.00 | 0.00 | 0.00 | 69 | 1018.2 |
| 20260901023717 | 81 | 44 | 0.0 | 0.0 | 0.00 | 0.00 | 0.00 | 69 | 1018.3 |
| 20260901023216 | 81 | 44 | 0.0 | 0.0 | 0.00 | 0.00 | 0.00 | 68 | 1018.2 |
| 20260901022716 | 81 | 44 | 0.0 | 0.0 | 0.00 | 0.00 | 0.00 | 69 | 1018.2 |
| 20260901022215 | 81 | 44 | 0.0 | 0.0 | 0.00 | 0.00 | 0.00 | 68 | 1018.3 |
| 20260901021715 | 81 | 44 | 0.0 | 0.0 | 0.00 | 0.00 | 0.00 | 68 | 1018.3 |
| 20260901021214 | 81 | 44 | 0.0 | 0.0 | 0.00 | 0.00 | 0.00 | 68 | 1018.2 |
| 20260901020714 | 81 | 44 | 0.0 | 1.0 | 0.00 | 0.00 | 0.00 | 67 | 1018.3 |
| 20260901020213 | 82 | 44 | 0.0 | 2.0 | 0.00 | 0.00 | 0.00 | 67 | 1018.2 |
| 20260901015212 | 82 | 165 | 0.0 | 0.0 | 0.00 | 0.00 | 0.00 | 67 | 1018.2 |
| 20260901014712 | 82 | 165 | 0.0 | 0.0 | 0.00 | 0.00 | 0.00 | 66 | 1018.2 |
| 20260901014211 | 82 | 165 | 0.0 | 0.0 | 0.00 | 0.00 | 0.00 | 66 | 1018.1 |
| 20260901013711 | 83 | 165 | 0.0 | 0.0 | 0.00 | 0.00 | 0.00 | 65 | 1018.2 |
| 20260901013210 | 83 | 165 | 0.0 | 0.0 | 0.00 | 0.00 | 0.00 | 65 | 1018.1 |
| 20260901012710 | 83 | 165 | 0.0 | 0.0 | 0.00 | 0.00 | 0.00 | 64 | 1018.0 |
| 20260901012210 | 83 | 165 | 0.0 | 0.0 | 0.00 | 0.00 | 0.00 | 64 | 1018.0 |
| 20260901011709 | 83 | 165 | 0.0 | 0.0 | 0.00 | 0.00 | 0.00 | 63 | 1017.8 |
| 20260901011208 | 84 | 165 | 0.0 | 0.0 | 0.00 | 0.00 | 0.00 | 62 | 1017.9 |
| 20260901010708 | 84 | 165 | 0.0 | 0.0 | 0.00 | 0.00 | 0.00 | 61 | 1017.9 |
| 20260901010207 | 85 | 165 | 0.0 | 0.0 | 0.00 | 0.00 | 0.00 | 60 | 1017.8 |
| 20260901005842 | 86 | 165 | 0.0 | 0.0 | 0.00 | 0.00 | 0.00 | 58 | 1017.8 |
| 20260901005706 | 86 | 165 | 0.0 | 0.0 | 0.00 | 0.00 | 0.00 | 58 | 1017.8 |
| 20260901005206 | 87 | 165 | 0.0 | 0.0 | 0.00 | 0.00 | 0.00 | 56 | 1017.7 |
| 20260901004705 | 88 | 165 | 0.0 | 2.0 | 0.00 | 0.00 | 0.00 | 54 | 1017.7 |
| 20260901004205 | 88 | 165 | 0.0 | 4.0 | 0.00 | 0.00 | 0.00 | 53 | 1017.6 |
| 20260901003704 | 88 | 225 | 2.0 | 6.0 | 0.00 | 0.00 | 0.00 | 52 | 1017.6 |
| 20260901003204 | 88 | 260 | 3.0 | 7.0 | 0.00 | 0.00 | 0.00 | 52 | 1017.6 |
| 20260901002203 | 88 | 242 | 3.0 | 3.0 | 0.00 | 0.00 | 0.00 | 52 | 1017.5 |
| 20260901001702 | 88 | 242 | 1.0 | 4.0 | 0.00 | 0.00 | 0.00 | 52 | 1017.3 |
| 20260901001202 | 88 | 183 | 1.0 | 6.0 | 0.00 | 0.00 | 0.00 | 52 | 1017.3 |
| 20260901000701 | 88 | 207 | 3.0 | 7.0 | 0.00 | 0.00 | 0.00 | 51 | 1017.2 |
| 20260901000201 | 88 | 233 | 3.0 | 8.0 | 0.00 | 0.00 | 0.00 | 51 | 1017.1 |
| 20260831235700 | 89 | 266 | 5.0 | 9.0 | 0.00 | 0.00 | 0.00 | 51 | 1017.1 |
| 20260831235200 | 89 | 226 | 3.0 | 8.0 | 0.00 | 0.00 | 0.00 | 50 | 1017.1 |
| 20260831234659 | 89 | 232 | 4.0 | 5.0 | 0.00 | 0.00 | 0.00 | 50 | 1017.1 |
| 20260831234159 | 89 | 255 | 2.0 | 7.0 | 0.00 | 0.00 | 0.00 | 50 | 1017.2 |
| 20260831233658 | 89 | 228 | 2.0 | 8.0 | 0.00 | 0.00 | 0.00 | 50 | 1017.1 |
| 20260831233158 | 89 | 228 | 3.0 | 10.0 | 0.00 | 0.00 | 0.00 | 50 | 1017.0 |
| 20260831232657 | 89 | 229 | 5.0 | 11.0 | 0.00 | 0.00 | 0.00 | 49 | 1016.9 |
| 20260831232156 | 89 | 260 | 3.0 | 10.0 | 0.00 | 0.00 | 0.00 | 49 | 1016.9 |
| 20260831231656 | 89 | 217 | 3.0 | 13.0 | 0.00 | 0.00 | 0.00 | 49 | 1016.8 |
| 20260831231155 | 89 | 239 | 6.0 | 12.0 | 0.00 | 0.00 | 0.00 | 48 | 1016.7 |
| 20260831230655 | 89 | 264 | 7.0 | 12.0 | 0.00 | 0.00 | 0.00 | 48 | 1016.6 |
| 20260831230154 | 89 | 240 | 7.0 | 16.0 | 0.00 | 0.00 | 0.00 | 48 | 1016.6 |
| 20260831225654 | 89 | 246 | 8.0 | 12.0 | 0.00 | 0.00 | 0.00 | 47 | 1016.5 |
| 20260831225153 | 89 | 211 | 8.0 | 13.0 | 0.00 | 0.00 | 0.00 | 47 | 1016.6 |
| 20260831224653 | 89 | 235 | 8.0 | 15.0 | 0.00 | 0.00 | 0.00 | 46 | 1016.6 |
| 20260831224152 | 90 | 259 | 9.0 | 20.0 | 0.00 | 0.00 | 0.00 | 45 | 1016.7 |
| 20260831223652 | 90 | 246 | 10.0 | 14.0 | 0.00 | 0.00 | 0.00 | 44 | 1016.6 |
| 20260831223151 | 90 | 214 | 7.0 | 20.0 | 0.00 | 0.00 | 0.00 | 44 | 1016.5 |
| 20260831222150 | 90 | 179 | 6.0 | 18.0 | 0.00 | 0.00 | 0.00 | 45 | 1016.4 |
| 20260831221650 | 90 | 240 | 10.0 | 19.0 | 0.00 | 0.00 | 0.00 | 44 | 1016.4 |
| 20260831221149 | 90 | 250 | 12.0 | 15.0 | 0.00 | 0.00 | 0.00 | 44 | 1016.5 |
| 20260831220649 | 91 | 240 | 9.0 | 11.0 | 0.00 | 0.00 | 0.00 | 43 | 1016.6 |
| 20260831220148 | 91 | 212 | 5.0 | 14.0 | 0.00 | 0.00 | 0.00 | 44 | 1016.7 |
| 20260831215648 | 91 | 217 | 5.0 | 14.0 | 0.00 | 0.00 | 0.00 | 43 | 1016.8 |
| 20260831215147 | 91 | 238 | 5.0 | 12.0 | 0.00 | 0.00 | 0.00 | 43 | 1016.9 |
| 20260831214647 | 91 | 283 | 3.0 | 15.0 | 0.00 | 0.00 | 0.00 | 43 | 1016.9 |
| 20260831214146 | 91 | 252 | 9.0 | 13.0 | 0.00 | 0.00 | 0.00 | 43 | 1017.1 |
| 20260831213645 | 90 | 238 | 9.0 | 15.0 | 0.00 | 0.00 | 0.00 | 43 | 1017.2 |
| 20260831213145 | 91 | 235 | 8.0 | 8.0 | 0.00 | 0.00 | 0.00 | 42 | 1017.2 |
| 20260831212644 | 92 | 215 | 4.0 | 10.0 | 0.00 | 0.00 | 0.00 | 41 | 1017.2 |
| 20260831212144 | 91 | 235 | 8.0 | 15.0 | 0.00 | 0.00 | 0.00 | 42 | 1017.3 |
| 20260831210641 | 92 | 239 | 7.0 | 17.0 | 0.00 | 0.00 | 0.00 | 41 | 1017.4 |
| 20260831204137 | 91 | 259 | 7.0 | 13.0 | 0.00 | 0.00 | 0.00 | 42 | 1017.8 |
| 20260831203636 | 91 | 243 | 7.0 | 12.0 | 0.00 | 0.00 | 0.00 | 41 | 1017.9 |
| 20260831203136 | 91 | 255 | 8.0 | 15.0 | 0.00 | 0.00 | 0.00 | 41 | 1017.9 |
| 20260831202635 | 91 | 248 | 9.0 | 17.0 | 0.00 | 0.00 | 0.00 | 42 | 1018.0 |
| 20260831202135 | 90 | 328 | 8.0 | 13.0 | 0.00 | 0.00 | 0.00 | 42 | 1017.9 |
| 20260831201634 | 91 | 252 | 8.0 | 13.0 | 0.00 | 0.00 | 0.00 | 43 | 1018.0 |
| 20260831201133 | 91 | 267 | 8.0 | 13.0 | 0.00 | 0.00 | 0.00 | 42 | 1018.2 |
| 20260831200633 | 92 | 232 | 5.0 | 14.0 | 0.00 | 0.00 | 0.00 | 41 | 1018.1 |
| 20260831195631 | 91 | 239 | 9.0 | 14.0 | 0.00 | 0.00 | 0.00 | 41 | 1018.3 |
| 20260831195130 | 91 | 255 | 6.0 | 14.0 | 0.00 | 0.00 | 0.00 | 42 | 1018.4 |
| 20260831194630 | 91 | 259 | 9.0 | 12.0 | 0.00 | 0.00 | 0.00 | 41 | 1018.6 |
| 20260831194129 | 91 | 270 | 8.0 | 15.0 | 0.00 | 0.00 | 0.00 | 41 | 1018.7 |
| 20260831193630 | 92 | 273 | 9.0 | 16.0 | 0.00 | 0.00 | 0.00 | 38 | 1018.7 |
| 20260831192628 | 92 | 267 | 7.0 | 15.0 | 0.00 | 0.00 | 0.00 | 39 | 1018.7 |
| 20260831192127 | 92 | 274 | 5.0 | 15.0 | 0.00 | 0.00 | 0.00 | 41 | 1018.8 |
| 20260831191627 | 91 | 240 | 10.0 | 14.0 | 0.00 | 0.00 | 0.00 | 39 | 1018.8 |
| 20260831191126 | 91 | 217 | 10.0 | 17.0 | 0.00 | 0.00 | 0.00 | 37 | 1018.9 |
| 20260831190626 | 91 | 245 | 9.0 | 16.0 | 0.00 | 0.00 | 0.00 | 41 | 1018.9 |
| 20260831190125 | 92 | 266 | 5.0 | 16.0 | 0.00 | 0.00 | 0.00 | 42 | 1018.8 |
| 20260831185625 | 90 | 222 | 7.0 | 14.0 | 0.00 | 0.00 | 0.00 | 42 | 1018.9 |
| 20260831185124 | 90 | 274 | 5.0 | 14.0 | 0.00 | 0.00 | 0.00 | 45 | 1019.0 |
| 20260831184624 | 90 | 249 | 4.0 | 11.0 | 0.00 | 0.00 | 0.00 | 47 | 1019.1 |
| 20260831184123 | 90 | 225 | 6.0 | 12.0 | 0.00 | 0.00 | 0.00 | 46 | 1019.1 |
| 20260831183623 | 89 | 271 | 9.0 | 14.0 | 0.00 | 0.00 | 0.00 | 46 | 1019.2 |
| 20260831183122 | 89 | 273 | 9.0 | 12.0 | 0.00 | 0.00 | 0.00 | 45 | 1019.2 |
| 20260831182622 | 89 | 259 | 6.0 | 18.0 | 0.00 | 0.00 | 0.00 | 46 | 1019.2 |
| 20260831182121 | 89 | 224 | 9.0 | 13.0 | 0.00 | 0.00 | 0.00 | 46 | 1019.3 |
| 20260831181620 | 90 | 264 | 8.0 | 18.0 | 0.00 | 0.00 | 0.00 | 48 | 1019.3 |
| 20260831181120 | 89 | 242 | 8.0 | 16.0 | 0.00 | 0.00 | 0.00 | 48 | 1019.4 |
| 20260831180620 | 90 | 242 | 10.0 | 15.0 | 0.00 | 0.00 | 0.00 | 47 | 1019.4 |
| 20260831180119 | 90 | 239 | 5.0 | 12.0 | 0.00 | 0.00 | 0.00 | 49 | 1019.3 |
| 20260831175618 | 89 | 271 | 6.0 | 19.0 | 0.00 | 0.00 | 0.00 | 49 | 1019.4 |
| 20260831175118 | 89 | 225 | 8.0 | 15.0 | 0.00 | 0.00 | 0.00 | 50 | 1019.5 |
| 20260831174616 | 89 | 228 | 8.0 | 17.0 | 0.00 | 0.00 | 0.00 | 51 | 1019.3 |
| 20260831174116 | 89 | 228 | 10.0 | 21.0 | 0.00 | 0.00 | 0.00 | 51 | 1019.5 |
| 20260831173615 | 88 | 242 | 12.0 | 18.0 | 0.00 | 0.00 | 0.00 | 52 | 1019.6 |
| 20260831173115 | 88 | 257 | 8.0 | 21.0 | 0.00 | 0.00 | 0.00 | 52 | 1019.6 |
| 20260831172614 | 88 | 260 | 10.0 | 14.0 | 0.00 | 0.00 | 0.00 | 53 | 1019.6 |
| 20260831172114 | 88 | 224 | 7.0 | 12.0 | 0.00 | 0.00 | 0.00 | 53 | 1019.6 |
| 20260831171613 | 88 | 262 | 7.0 | 14.0 | 0.00 | 0.00 | 0.00 | 55 | 1019.5 |
| 20260831171113 | 87 | 262 | 7.0 | 13.0 | 0.00 | 0.00 | 0.00 | 55 | 1019.6 |
| 20260831170612 | 87 | 277 | 9.0 | 13.0 | 0.00 | 0.00 | 0.00 | 55 | 1019.7 |
| 20260831170112 | 87 | 290 | 6.0 | 13.0 | 0.00 | 0.00 | 0.00 | 56 | 1019.8 |
| 20260831165611 | 87 | 255 | 10.0 | 12.0 | 0.00 | 0.00 | 0.00 | 57 | 1019.8 |
| 20260831165110 | 87 | 253 | 6.0 | 11.0 | 0.00 | 0.00 | 0.00 | 56 | 1019.8 |
| 20260831164610 | 87 | 243 | 6.0 | 14.0 | 0.00 | 0.00 | 0.00 | 57 | 1019.9 |
| 20260831164109 | 86 | 309 | 10.0 | 10.0 | 0.00 | 0.00 | 0.00 | 57 | 1019.8 |
| 20260831163609 | 86 | 281 | 6.0 | 8.0 | 0.00 | 0.00 | 0.00 | 58 | 1019.9 |
| 20260831163108 | 86 | 236 | 4.0 | 11.0 | 0.00 | 0.00 | 0.00 | 59 | 1019.9 |
| 20260831162107 | 85 | 262 | 6.0 | 13.0 | 0.00 | 0.00 | 0.00 | 59 | 1020.0 |
| 20260831161607 | 85 | 236 | 6.0 | 10.0 | 0.00 | 0.00 | 0.00 | 59 | 1020.0 |
| 20260831161106 | 85 | 229 | 5.0 | 9.0 | 0.00 | 0.00 | 0.00 | 61 | 1020.0 |
| 20260831160606 | 83 | 329 | 2.0 | 8.0 | 0.00 | 0.00 | 0.00 | 63 | 1020.1 |
| 20260831160105 | 83 | 225 | 5.0 | 10.0 | 0.00 | 0.00 | 0.00 | 62 | 1020.1 |
| 20260831155605 | 83 | 239 | 5.0 | 12.0 | 0.00 | 0.00 | 0.00 | 63 | 1020.0 |
| 20260831155104 | 83 | 231 | 9.0 | 12.0 | 0.00 | 0.00 | 0.00 | 61 | 1019.9 |
| 20260831154604 | 83 | 228 | 9.0 | 10.0 | 0.00 | 0.00 | 0.00 | 62 | 1020.0 |
| 20260831154103 | 83 | 260 | 8.0 | 9.0 | 0.00 | 0.00 | 0.00 | 62 | 1019.9 |
| 20260831153603 | 83 | 243 | 5.0 | 8.0 | 0.00 | 0.00 | 0.00 | 62 | 1019.9 |
| 20260831153102 | 83 | 191 | 5.0 | 9.0 | 0.00 | 0.00 | 0.00 | 63 | 1019.8 |
| 20260831152602 | 83 | 221 | 4.0 | 9.0 | 0.00 | 0.00 | 0.00 | 62 | 1019.8 |
| 20260831152101 | 82 | 226 | 5.0 | 7.0 | 0.00 | 0.00 | 0.00 | 63 | 1019.9 |
| 20260831151601 | 82 | 180 | 4.0 | 11.0 | 0.00 | 0.00 | 0.00 | 65 | 1019.8 |
| 20260831151100 | 81 | 231 | 6.0 | 8.0 | 0.00 | 0.00 | 0.00 | 64 | 1019.9 |
| 20260831150559 | 81 | 246 | 6.0 | 11.0 | 0.00 | 0.00 | 0.00 | 64 | 1019.8 |
| 20260831150059 | 81 | 256 | 7.0 | 8.0 | 0.00 | 0.00 | 0.00 | 64 | 1019.8 |
| 20260831145558 | 81 | 245 | 6.0 | 10.0 | 0.00 | 0.00 | 0.00 | 64 | 1019.7 |
| 20260831145058 | 81 | 231 | 3.0 | 9.0 | 0.00 | 0.00 | 0.00 | 65 | 1019.7 |
| 20260831144558 | 81 | 249 | 4.0 | 8.0 | 0.00 | 0.00 | 0.00 | 66 | 1019.7 |
| 20260831144057 | 80 | 250 | 4.0 | 9.0 | 0.00 | 0.00 | 0.00 | 66 | 1019.7 |
| 20260831143556 | 80 | 221 | 7.0 | 9.0 | 0.00 | 0.00 | 0.00 | 67 | 1019.7 |
| 20260831143056 | 80 | 229 | 3.0 | 9.0 | 0.00 | 0.00 | 0.00 | 67 | 1019.7 |
| 20260831142555 | 80 | 246 | 6.0 | 8.0 | 0.00 | 0.00 | 0.00 | 67 | 1019.6 |
| 20260831142055 | 79 | 242 | 6.0 | 8.0 | 0.00 | 0.00 | 0.00 | 67 | 1019.5 |
| 20260831141554 | 79 | 256 | 4.0 | 4.0 | 0.00 | 0.00 | 0.00 | 68 | 1019.5 |
| 20260831141054 | 79 | 240 | 2.0 | 4.0 | 0.00 | 0.00 | 0.00 | 70 | 1019.5 |
| 20260831140553 | 79 | 152 | 3.0 | 5.0 | 0.00 | 0.00 | 0.00 | 70 | 1019.5 |
| 20260831140053 | 78 | 167 | 3.0 | 5.0 | 0.00 | 0.00 | 0.00 | 71 | 1019.5 |
| 20260831135552 | 78 | 233 | 2.0 | 6.0 | 0.00 | 0.00 | 0.00 | 71 | 1019.5 |
| 20260831135052 | 78 | 221 | 3.0 | 4.0 | 0.00 | 0.00 | 0.00 | 70 | 1019.5 |
| 20260831134551 | 78 | 177 | 2.0 | 4.0 | 0.00 | 0.00 | 0.00 | 71 | 1019.4 |
| 20260831134051 | 78 | 155 | 3.0 | 4.0 | 0.00 | 0.00 | 0.00 | 71 | 1019.6 |
| 20260831133549 | 77 | 198 | 3.0 | 4.0 | 0.00 | 0.00 | 0.00 | 72 | 1019.6 |
| 20260831133119 | 77 | 163 | 3.0 | 3.0 | 0.00 | 0.00 | 0.00 | 73 | 1019.6 |
| 20260831133048 | 77 | 163 | 3.0 | 3.0 | 0.00 | 0.00 | 0.00 | 73 | 1019.6 |
| 20260831132548 | 77 | 188 | 2.0 | 2.0 | 0.00 | 0.00 | 0.00 | 74 | 1019.6 |
| 20260831132205 | 76 | 187 | 0.0 | 2.0 | 0.00 | 0.00 | 0.00 | 74 | 1019.6 |
| 20260831132047 | 76 | 187 | 0.0 | 2.0 | 0.00 | 0.00 | 0.00 | 74 | 1019.6 |
| 20260831131547 | 76 | 149 | 1.0 | 1.0 | 0.00 | 0.00 | 0.00 | 75 | 1019.7 |
| 20260831131046 | 76 | 134 | 1.0 | 2.0 | 0.00 | 0.00 | 0.00 | 75 | 1019.6 |
| 20260831130546 | 76 | 138 | 0.0 | 2.0 | 0.00 | 0.00 | 0.00 | 75 | 1019.6 |
| 20260831130045 | 76 | 135 | 1.0 | 3.0 | 0.00 | 0.00 | 0.00 | 75 | 1019.5 |
| 20260831125545 | 76 | 115 | 2.0 | 3.0 | 0.00 | 0.00 | 0.00 | 75 | 1019.4 |
| 20260831125044 | 75 | 156 | 1.0 | 3.0 | 0.00 | 0.00 | 0.00 | 76 | 1019.5 |
| 20260831124544 | 75 | 152 | 2.0 | 2.0 | 0.00 | 0.00 | 0.00 | 75 | 1019.4 |
| 20260831123542 | 75 | 145 | 1.0 | 3.0 | 0.00 | 0.00 | 0.00 | 76 | 1019.3 |
| 20260831123041 | 75 | 146 | 1.0 | 2.0 | 0.00 | 0.00 | 0.00 | 76 | 1019.3 |
| 20260831122541 | 75 | 142 | 1.0 | 2.0 | 0.00 | 0.00 | 0.00 | 77 | 1019.4 |
| 20260831122040 | 75 | 135 | 1.0 | 2.0 | 0.00 | 0.00 | 0.00 | 77 | 1019.4 |
| 20260831121540 | 75 | 132 | 2.0 | 2.0 | 0.00 | 0.00 | 0.00 | 77 | 1019.3 |
| 20260831121039 | 75 | 136 | 1.0 | 2.0 | 0.00 | 0.00 | 0.00 | 77 | 1019.3 |
| 20260831120539 | 75 | 128 | 0.0 | 2.0 | 0.00 | 0.00 | 0.00 | 77 | 1019.3 |
| 20260831120038 | 74 | 104 | 1.0 | 0.0 | 0.00 | 0.00 | 0.00 | 77 | 1019.3 |
| 20260831115538 | 74 | 124 | 0.0 | 0.0 | 0.00 | 0.00 | 0.00 | 78 | 1019.2 |
| 20260831115037 | 74 | 124 | 0.0 | 0.0 | 0.00 | 0.00 | 0.00 | 78 | 1019.1 |
| 20260831114036 | 74 | 124 | 0.0 | 0.0 | 0.00 | 0.00 | 0.00 | 78 | 1019.1 |
| 20260831113535 | 74 | 124 | 0.0 | 0.0 | 0.00 | 0.00 | 0.00 | 78 | 1019.1 |
| 20260831113035 | 74 | 124 | 0.0 | 0.0 | 0.00 | 0.00 | 0.00 | 77 | 1019.1 |
| 20260831112534 | 74 | 124 | 0.0 | 1.0 | 0.00 | 0.00 | 0.00 | 77 | 1019.0 |
| 20260831112034 | 74 | 124 | 0.0 | 1.0 | 0.00 | 0.00 | 0.00 | 77 | 1019.0 |
| 20260831111533 | 74 | 139 | 0.0 | 3.0 | 0.00 | 0.00 | 0.00 | 77 | 1019.0 |
| 20260831110532 | 74 | 76 | 0.0 | 2.0 | 0.00 | 0.00 | 0.00 | 78 | 1018.9 |
| 20260831105031 | 74 | 93 | 1.0 | 2.0 | 0.00 | 0.00 | 0.00 | 77 | 1018.6 |
| 20260831104530 | 74 | 35 | 0.0 | 0.0 | 0.00 | 0.00 | 0.00 | 77 | 1018.6 |
| 20260831103528 | 74 | 75 | 1.0 | 0.0 | 0.00 | 0.00 | 0.00 | 78 | 1018.4 |
| 20260831103028 | 74 | 72 | 0.0 | 0.0 | 0.00 | 0.00 | 0.00 | 78 | 1018.4 |
| 20260831102527 | 74 | 72 | 0.0 | 3.0 | 0.00 | 0.00 | 0.00 | 78 | 1018.4 |
| 20260831102027 | 74 | 72 | 0.0 | 3.0 | 0.00 | 0.00 | 0.00 | 78 | 1018.4 |
| 20260831101526 | 74 | 68 | 2.0 | 4.0 | 0.00 | 0.00 | 0.00 | 78 | 1018.3 |
| 20260831101026 | 74 | 79 | 3.0 | 0.0 | 0.00 | 0.00 | 0.00 | 78 | 1018.3 |
| 20260831100525 | 74 | 83 | 0.0 | 0.0 | 0.00 | 0.00 | 0.00 | 78 | 1018.3 |
| 20260831100025 | 74 | 83 | 0.0 | 0.0 | 0.00 | 0.00 | 0.00 | 78 | 1018.3 |
| 20260831095523 | 74 | 83 | 0.0 | 0.0 | 0.00 | 0.00 | 0.00 | 78 | 1018.3 |
| 20260831095021 | 74 | 83 | 0.0 | 0.0 | 0.00 | 0.00 | 0.00 | 78 | 1018.3 |
| 20260831094020 | 74 | 83 | 0.0 | 0.0 | 0.00 | 0.00 | 0.00 | 78 | 1018.3 |
| 20260831093520 | 74 | 83 | 0.0 | 0.0 | 0.00 | 0.00 | 0.00 | 78 | 1018.4 |
| 20260831093019 | 74 | 83 | 0.0 | 0.0 | 0.00 | 0.00 | 0.00 | 78 | 1018.4 |